Theta_e
315 314 314 313 314 312 314 314 315 315 317 315 320 319 320 321 318 318 316 317 318 320 324 325 325 327 325 327 327 325 327 326 327 328 327 324 324 323 323 322 321 320 320 321 325
312 311 312 314 311 314 314 313 315 314 317 316 320 319 320 321 320 317 318 319 320 321 322 323 322 322 324 326 325 326 325 327 326 325 324 324 323 324 323 320 320 321 319 322 320
309 311 313 312 312 313 314 317 317 314 316 317 319 319 320 319 321 318 319 320 321 321 321 323 322 322 327 325 324 325 325 325 326 325 322 323 323 322 323 320 321 321 318 316 316
309 311 314 311 314 314 315 319 317 313 315 317 318 319 318 321 319 317 318 320 322 324 324 323 321 324 324 323 323 324 323 322 324 322 322 321 321 321 319 319 320 318 315 313 312
309 312 313 312 314 314 317 318 318 318 317 318 318 319 322 315 316 317 318 319 322 323 323 321 319 321 322 321 322 321 322 322 322 322 320 318 318 322 317 318 320 316 313 312 310
310 312 312 312 314 315 318 318 320 321 321 320 318 318 319 315 316 316 317 319 321 322 323 322 321 321 322 323 322 322 323 323 322 321 317 317 316 320 317 317 319 314 311 309 309
310 312 312 313 314 317 318 317 317 317 318 318 318 316 314 315 315 316 317 318 320 319 322 322 323 319 319 324 322 323 324 323 320 319 317 314 317 322 317 316 314 312 309 309 310
310 312 311 314 314 316 317 318 318 317 318 318 317 316 314 315 315 315 316 317 318 320 319 319 322 323 317 316 324 318 314 320 321 316 314 312 312 315 313 313 311 311 308 310 308
310 312 312 314 315 316 316 317 317 317 318 318 318 315 315 316 315 314 315 314 316 318 320 319 321 313 311 312 313 309 311 311 311 313 312 311 310 311 311 312 310 308 309 308 307
311 312 313 315 315 316 317 316 316 317 318 319 316 315 314 314 315 312 314 316 316 317 318 317 311 309 308 308 308 311 310 311 310 310 307 307 307 307 307 311 309 306 304 304 304
311 312 313 316 316 316 319 320 316 313 314 313 313 314 314 315 314 311 311 314 314 313 316 313 310 310 310 310 311 310 310 310 310 309 307 306 306 306 308 310 306 304 303 303 303
311 312 313 315 315 316 319 316 315 314 314 314 314 314 315 314 313 311 311 312 312 312 314 311 310 310 311 310 308 307 309 311 308 307 307 307 307 309 309 307 306 303 301 300 299
311 312 314 315 316 316 316 316 316 315 313 316 314 313 314 314 312 310 309 310 311 311 309 309 310 312 312 309 308 307 311 308 307 307 306 306 308 310 309 307 302 300 298 297 298
310 313 314 316 315 315 312 315 315 315 314 316 316 315 313 315 312 312 310 311 310 311 312 310 310 312 310 310 308 307 308 308 307 306 306 305 304 309 308 303 299 296 296 296 297
310 312 315 313 313 311 312 315 315 316 325 318 317 315 311 309 310 311 309 309 310 310 311 310 310 309 310 309 307 308 308 307 307 306 306 302 303 306 304 303 298 297 297 297 297
310 311 313 314 312 310 314 315 316 321 323 319 316 314 312 310 309 310 308 306 307 310 309 310 310 308 308 307 307 305 305 304 306 304 305 302 300 299 304 303 299 298 297 297 297
310 312 310 309 309 310 316 317 321 321 317 318 316 314 310 308 308 310 308 306 304 304 302 307 310 309 306 305 304 304 301 306 304 306 306 302 301 302 302 299 299 298 298 299 297
313 313 310 308 309 312 315 316 321 320 317 316 314 313 311 307 308 309 309 307 305 303 303 306 307 306 306 305 305 304 302 305 305 304 302 302 302 303 298 298 298 298 298 298 299
314 314 310 308 311 314 311 317 317 317 314 314 314 313 312 308 309 308 306 307 304 302 303 304 304 305 307 306 305 304 301 302 302 301 301 301 299 299 298 299 300 300 300 298 297
314 315 309 311 312 314 312 315 313 312 312 313 313 310 309 305 306 306 308 306 306 304 302 303 302 304 305 305 305 304 302 300 299 299 302 298 297 296 298 300 300 300 300 300 300
314 312 309 314 314 309 312 313 312 311 311 311 311 309 306 305 306 306 307 305 305 304 301 300 301 302 301 302 301 299 299 299 299 299 301 301 297 297 298 299 298 298 299 299 299
313 308 311 315 309 307 310 313 311 311 309 309 309 307 306 304 305 306 307 306 304 301 302 299 298 299 301 301 300 298 298 297 296 298 299 295 297 296 297 297 296 296 297 298 297
306 307 312 315 314 307 310 309 307 309 307 309 307 306 304 303 306 305 308 305 301 302 301 300 296 296 295 298 297 298 297 297 298 297 297 298 298 295 297 296 295 294 295 295 297
309 309 307 306 305 308 309 309 307 305 304 304 305 303 304 303 302 303 304 306 301 301 303 301 299 298 297 298 296 297 296 295 295 293 293 294 292 292 295 295 294 294 293 294 296
304 303 304 304 304 307 308 308 306 305 304 303 303 303 304 299 301 301 301 300 302 302 299 297 296 298 297 297 297 296 294 294 293 293 288 292 292 293 294 294 293 293 294 293 297
309 305 302 300 305 306 306 306 304 304 303 303 302 301 300 300 300 300 299 298 298 297 297 295 295 296 296 296 295 294 294 293 293 293 292 292 292 294 294 293 294 294 294 294 296
305 306 303 305 303 305 302 304 304 301 301 301 301 301 302 300 297 297 295 295 296 296 295 296 295 293 295 294 292 292 292 293 293 293 293 293 295 295 295 294 294 294 294 295 295
Wind_Speed
16 16 17 16 17 20 13 9 8 8 5 6 10 12 13 16 23 23 12 11 13 13 15 16 12 12 9 3 2 3 5 4 3 4 1 7 6 7 4 7 11 5 6 5 27
16 17 17 15 20 13 10 9 9 7 5 6 9 9 11 6 9 23 18 14 12 12 11 11 7 8 1 3 3 4 4 2 3 3 3 7 6 4 5 5 5 7 15 23 31
18 19 16 17 18 12 10 10 9 7 7 7 8 9 3 8 4 7 18 17 15 14 15 16 17 3 2 3 3 3 3 2 3 5 6 6 7 5 3 6 4 6 9 16 23
19 19 16 20 14 11 10 10 10 8 9 9 10 6 6 4 4 14 18 17 16 16 14 7 4 2 3 3 4 4 5 5 3 4 4 6 8 3 5 3 7 10 9 15 12
19 19 17 21 12 11 11 12 12 12 11 9 6 2 3 6 3 17 15 16 14 19 19 7 8 4 4 3 3 5 2 5 5 3 5 6 6 1 7 8 9 12 13 10 11
19 18 18 20 11 11 11 12 13 14 13 10 9 13 7 8 14 15 16 11 13 16 15 12 4 4 3 3 4 3 2 3 4 5 3 1 6 5 7 8 8 13 10 9 11
18 17 18 19 9 9 10 12 12 12 11 9 6 14 16 2 12 13 12 10 9 10 3 7 7 6 2 1 1 2 2 1 3 3 2 3 7 2 7 5 9 10 9 9 11
18 17 17 17 9 9 10 11 10 8 8 7 10 12 6 13 16 18 14 9 7 8 5 5 7 2 5 6 2 4 5 2 4 5 4 5 6 2 6 7 10 8 7 8 8
18 16 15 14 8 11 13 15 12 7 7 13 5 10 3 9 20 19 17 11 16 6 6 5 3 4 9 4 4 8 2 4 8 3 2 5 7 7 5 7 7 8 7 8 7
18 16 13 11 9 10 15 20 27 14 7 6 13 7 7 7 11 26 24 17 7 8 3 6 6 5 7 9 2 3 3 4 6 5 8 6 6 8 9 8 8 9 9 9 10
18 16 10 16 8 8 2 4 5 7 19 8 4 5 3 19 7 28 35 15 9 7 4 6 10 6 6 6 4 6 4 8 5 5 11 5 13 10 5 10 13 9 9 9 8
16 14 5 8 16 5 3 6 3 3 6 11 8 7 7 5 8 24 29 8 9 8 4 7 6 6 5 10 9 8 6 5 9 10 10 8 12 10 12 8 10 11 9 9 9
15 12 8 7 7 18 17 9 5 2 6 3 4 4 6 9 5 11 13 8 6 7 9 7 3 8 6 8 10 6 3 5 8 11 8 6 4 5 5 11 13 11 7 8 8
14 12 12 4 5 3 5 3 3 2 5 10 8 6 10 3 4 13 19 2 8 6 3 6 8 7 7 5 5 5 3 9 17 6 3 6 4 4 5 8 9 9 9 8 8
13 11 12 12 3 4 3 2 1 1 4 6 5 5 7 8 4 11 23 8 6 6 4 2 5 7 7 6 5 6 12 19 17 6 2 9 3 2 6 7 7 8 7 8 7
11 12 6 5 8 6 2 4 2 5 3 4 3 6 5 6 5 5 8 12 4 4 7 3 3 4 4 9 4 11 9 11 3 4 3 3 5 4 4 5 5 6 8 9 9
8 12 16 13 3 6 3 2 5 6 4 5 4 5 5 6 7 7 7 16 7 7 8 5 2 1 4 5 8 10 7 5 6 5 4 16 7 4 5 15 7 14 10 12 8
7 8 8 16 11 2 2 4 8 4 4 3 0 2 4 6 3 7 4 6 8 5 2 5 5 6 4 4 3 6 5 3 5 4 13 10 4 4 7 17 6 9 7 10 9
5 6 6 14 11 4 5 7 2 3 4 5 4 3 2 4 3 6 5 4 5 8 5 5 4 2 3 2 2 6 5 3 3 4 2 4 4 15 24 21 24 20 19 12 12
4 3 10 17 10 4 6 6 3 4 5 4 3 5 4 6 6 5 4 7 7 9 3 2 4 3 5 4 4 5 1 4 3 5 6 6 9 4 19 18 19 20 18 19 21
3 4 17 17 4 6 5 4 3 3 4 6 5 4 5 4 4 5 5 4 6 7 7 6 2 6 5 6 2 5 4 5 2 3 3 5 4 14 15 16 18 19 16 15 17
3 4 18 10 5 4 3 3 2 5 6 6 4 5 3 5 4 4 4 4 6 3 3 4 1 5 2 3 7 7 4 4 3 6 4 4 12 18 14 14 16 16 17 19 19
3 1 12 6 4 3 4 4 5 5 5 4 4 5 5 3 4 4 6 4 6 4 3 3 2 4 7 5 6 5 4 5 5 1 5 6 7 15 10 17 17 18 20 16 18
3 3 5 6 3 7 5 4 4 5 4 5 2 4 4 3 5 2 3 3 4 2 3 3 3 5 5 7 5 6 6 5 3 2 5 5 16 16 16 20 21 20 18 17 17
4 1 2 2 5 5 5 3 4 2 3 5 4 5 3 3 2 3 4 3 2 5 3 3 1 3 8 11 10 6 4 7 4 5 2 13 15 15 15 19 20 19 20 20 16
4 4 4 2 3 5 5 3 3 3 4 2 6 7 7 4 2 2 2 3 3 5 4 3 2 3 4 9 9 4 4 6 6 9 9 16 19 8 17 16 18 20 23 16 20
5 5 5 4 3 4 4 2 4 6 5 7 6 6 7 2 3 3 2 1 3 3 3 2 1 3 4 11 11 3 8 6 7 12 12 9 13 20 22 20 20 22 20 16 22
Wind_Direction
11 7 3 1 356 349 360 16 28 21 59 95 126 125 104 84 63 53 39 346 342 351 344 337 327 301 290 280 158 84 60 25 28 54 351 352 36 334 17 97 56 77 91 66 57
9 7 5 6 356 10 28 43 33 44 87 112 136 138 127 55 50 45 4 359 348 342 338 331 329 339 297 317 353 75 80 60 71 55 8 338 12 333 61 23 56 44 28 48 56
11 8 9 6 6 27 39 38 34 51 100 115 141 145 128 349 58 359 2 1 349 333 307 294 286 282 10 36 355 52 116 356 45 58 7 326 338 338 84 51 59 73 53 41 47
13 11 15 8 24 34 38 40 46 70 107 126 152 135 7 15 67 345 355 356 354 356 10 350 304 305 84 52 329 92 58 37 40 43 22 341 315 65 50 124 114 93 92 66 54
13 13 15 10 36 41 51 52 63 80 98 119 124 50 28 44 37 350 351 0 8 24 28 6 37 8 51 35 43 68 7 87 127 131 60 22 342 149 140 149 133 103 85 78 75
13 15 15 10 42 50 60 66 79 86 90 78 61 67 81 66 349 355 350 359 14 20 25 24 344 289 322 61 83 289 32 153 115 111 84 21 269 174 201 165 138 98 92 84 81
15 17 17 10 47 57 69 77 80 89 91 72 57 81 69 69 11 13 2 23 4 15 19 1 348 41 318 67 273 234 153 201 5 344 23 322 5 80 172 150 95 105 104 95 92
17 19 21 17 41 78 79 80 77 82 73 46 67 76 87 32 26 17 12 359 1 306 349 341 337 324 24 319 23 342 56 79 326 3 15 70 262 167 44 95 76 119 112 101 90
19 19 26 28 65 90 92 77 60 70 55 36 65 102 35 353 12 6 358 326 317 287 274 318 28 73 358 55 36 12 347 348 329 105 357 55 279 312 350 99 99 111 105 90 83
21 20 33 45 104 103 106 89 63 45 18 34 40 60 5 326 348 359 357 343 271 328 17 37 50 61 11 37 80 312 326 297 280 339 348 308 281 301 310 103 83 65 61 61 54
24 25 52 48 126 125 2 331 32 14 49 93 63 94 335 338 53 359 353 336 15 54 82 29 61 38 352 29 4 287 268 295 275 351 2 304 301 312 336 79 74 61 56 48 37
26 27 66 61 49 167 85 71 60 141 69 76 72 40 41 27 14 356 5 43 30 26 34 37 55 330 21 37 11 349 311 318 297 1 324 324 334 59 61 78 78 74 53 44 27
25 30 33 78 58 62 86 65 97 94 95 5 73 26 353 55 34 345 9 339 65 51 57 96 322 326 82 38 9 340 16 308 276 340 307 356 22 44 30 62 52 38 45 42 37
26 34 31 139 73 76 59 35 80 32 82 340 359 8 347 102 47 21 6 350 19 30 53 66 356 16 51 50 31 307 332 316 302 354 304 21 284 65 60 59 45 26 26 15 4
28 36 59 72 89 56 335 357 146 30 62 332 1 328 30 80 277 352 18 16 36 335 41 357 25 34 39 322 339 276 318 285 288 233 3 344 55 8 32 26 15 7 7 350 336
32 44 66 49 49 19 51 115 110 49 51 14 31 9 37 25 1 5 36 33 59 356 46 75 65 51 345 304 39 340 305 312 37 113 98 219 184 319 43 4 352 348 340 334 334
36 53 47 45 10 349 133 76 57 72 321 359 338 344 94 355 9 23 54 47 35 12 14 344 35 88 8 5 358 2 2 346 3 6 247 5 4 201 96 23 23 355 356 350 344
61 71 56 21 9 71 94 66 70 63 50 240 78 7 67 18 5 23 56 31 18 28 23 32 336 20 350 86 309 333 49 85 307 322 300 316 179 201 65 14 12 342 1 349 328
101 71 46 10 3 19 74 54 131 358 329 352 326 67 66 9 35 84 58 52 34 24 45 21 292 353 75 104 46 338 35 201 249 274 323 262 298 321 5 14 8 3 351 339 330
124 97 25 4 348 27 72 110 97 19 335 336 81 28 69 5 35 36 62 3 358 359 22 3 295 305 316 78 36 97 224 7 8 320 306 288 315 274 4 355 354 356 350 343 336
72 58 359 358 49 49 92 81 99 40 27 24 35 64 58 21 34 33 30 43 24 329 1 12 66 303 8 18 3 16 21 28 309 284 281 301 293 339 356 354 355 337 329 328 318
65 50 355 14 54 48 63 71 81 359 13 48 78 58 68 38 40 89 86 52 1 352 54 353 63 308 351 308 108 91 70 99 123 291 241 248 294 7 8 347 327 319 320 314 326
81 37 1 52 95 61 69 69 61 35 10 56 51 47 45 53 92 54 91 92 44 43 34 339 23 341 344 344 5 49 62 315 273 290 266 305 296 340 341 333 327 322 323 327 332
72 48 344 35 28 112 121 98 105 14 35 48 76 43 74 60 28 89 111 171 100 94 34 45 37 141 204 244 264 340 348 11 51 63 288 273 306 333 339 326 320 317 321 324 324
43 99 177 357 8 64 80 82 102 68 48 44 51 64 96 81 88 82 45 96 72 52 48 85 113 9 294 297 302 323 31 37 57 299 127 311 303 325 322 316 312 315 320 322 321
104 118 23 69 345 47 35 55 109 93 38 22 100 63 60 81 42 132 69 38 71 350 50 19 249 6 287 326 343 342 29 13 352 338 306 313 312 315 313 318 322 326 321 320 323
74 96 102 327 16 68 328 61 120 122 25 38 124 104 73 79 75 108 83 85 55 101 42 72 356 37 271 334 333 48 15 22 348 317 316 331 324 326 322 326 328 321 317 318 319